Wind_Speed
41 39 39 40 41 40 39 41 43 45 48 50 53 55 57 59 60 65 71 75 78 81 81 81 83 88 93 94 95 97 99 103 104 102 100 97 94 91 91 86 83 84 80 79 82 85 86 83 77 73 75 76 74 72 69 68 67 63 62 61 58 57 55 54 54 52 52 51 48 46 45 45 46 45 46 46 46 47 46 45 43 41 40 40 39 38
37 36 36 37 39 40 38 38 39 41 45 47 49 52 55 56 57 60 66 70 75 81 82 82 85 90 92 92 94 98 101 105 106 104 101 100 96 93 92 88 86 87 83 80 82 85 87 85 80 76 76 77 74 71 69 69 68 64 63 62 59 57 55 55 55 53 53 52 49 46 41 38 40 40 40 41 43 46 45 44 44 42 41 41 40 39
34 34 33 34 35 37 38 38 38 39 41 44 46 49 51 54 56 58 63 66 71 79 82 83 86 89 89 90 94 98 102 106 106 104 102 102 98 94 94 92 90 89 85 83 82 83 85 85 83 79 77 78 74 68 66 66 65 63 62 62 60 59 57 56 55 54 54 53 51 48 42 37 37 38 38 38 40 41 42 42 43 42 43 42 41 40
32 32 31 31 32 34 36 37 38 38 39 41 43 45 46 50 54 56 60 64 69 77 81 83 86 86 86 89 94 98 100 102 102 101 101 103 99 95 97 96 92 90 87 86 84 81 84 86 85 82 78 79 77 71 68 65 62 61 61 61 61 61 60 58 56 56 54 53 51 50 46 42 39 39 39 40 40 39 40 41 42 42 43 42 41 40
31 30 29 29 29 30 32 33 36 37 38 39 39 41 43 47 52 54 58 63 68 74 77 80 82 80 82 88 93 95 98 99 99 99 100 103 102 98 100 97 92 92 91 91 87 81 83 84 83 84 81 81 80 75 73 70 65 62 61 62 63 62 62 60 58 57 55 53 53 52 49 46 44 41 41 41 42 42 42 41 42 43 42 41 40 40
31 30 28 27 26 26 28 29 32 34 36 38 38 39 40 44 48 51 55 60 66 71 73 77 78 76 79 86 90 92 95 96 97 100 101 103 103 101 102 100 96 96 95 92 87 82 82 81 80 82 82 82 80 76 75 74 71 66 63 62 63 63 62 61 59 59 57 55 55 54 51 49 49 48 46 45 46 45 42 40 42 44 42 42 41 40
31 30 27 26 25 24 25 26 28 31 33 36 36 37 38 41 44 48 52 57 62 66 69 72 74 74 78 84 87 91 94 95 98 101 103 105 105 104 105 104 99 97 95 91 87 83 82 80 79 80 82 82 80 77 76 76 75 71 66 63 62 62 63 62 61 60 59 57 56 55 53 52 51 52 52 51 49 47 45 43 44 46 45 44 43 42
27 28 27 24 23 23 24 24 25 27 30 33 34 35 36 38 41 44 48 53 57 61 64 67 70 73 77 80 85 91 95 97 100 101 104 105 106 106 107 105 100 95 94 90 87 85 82 80 79 78 81 82 81 80 79 77 76 73 68 65 65 64 64 63 62 61 59 59 58 56 55 54 53 54 55 55 53 51 50 48 48 49 49 47 46 44
22 24 26 25 23 22 22 23 23 24 26 29 32 33 35 36 37 40 44 48 52 56 58 61 67 71 73 75 83 91 95 99 102 102 103 105 106 108 108 107 102 96 94 91 88 86 83 81 80 77 79 84 83 82 82 80 78 74 68 65 64 64 63 63 62 62 60 59 59 57 56 55 54 54 55 54 55 55 54 53 52 52 52 51 49 46
23 22 23 23 23 22 22 23 23 22 24 27 29 31 33 35 35 36 39 44 47 50 53 58 65 68 69 73 81 90 95 99 100 101 102 104 106 107 108 108 104 97 96 95 90 87 85 83 81 79 81 85 85 83 83 83 81 77 70 66 65 64 61 62 63 62 61 60 58 57 57 56 55 55 54 53 54 55 55 54 53 53 52 51 49 47
25 24 24 22 22 22 21 22 23 22 22 24 27 28 30 32 33 33 35 40 43 47 53 57 61 64 67 71 78 86 91 96 97 98 101 103 104 106 107 106 102 98 98 99 95 90 88 86 84 82 83 86 87 85 84 83 82 81 77 73 71 68 63 62 64 62 61 59 58 57 58 57 56 55 54 53 53 53 53 53 52 52 51 50 49 46
25 24 24 23 21 21 21 22 23 23 22 22 24 26 27 29 30 32 34 36 38 44 51 54 56 60 64 67 74 81 87 93 96 97 99 101 103 104 106 105 103 100 102 103 100 95 93 92 89 86 85 86 88 88 85 83 82 81 80 77 74 72 66 62 62 61 60 59 58 58 58 57 56 55 54 53 53 53 52 52 51 50 50 49 47 46
25 23 21 20 20 19 21 23 24 24 24 23 23 24 25 27 27 29 33 34 34 40 47 51 53 56 58 62 69 77 85 92 96 97 97 99 101 103 105 105 104 103 105 106 102 98 97 95 92 88 86 86 86 87 86 85 83 81 79 77 75 74 70 64 61 61 61 59 59 59 58 57 56 55 54 53 53 53 52 51 50 49 48 47 46 45
23 22 21 20 20 20 22 24 25 26 25 23 22 22 23 24 24 25 31 32 32 37 43 48 49 50 53 58 64 73 82 90 94 96 97 99 102 103 104 106 106 105 107 107 104 100 97 96 93 89 87 86 84 84 85 85 83 79 77 76 75 74 72 68 65 64 63 62 61 60 58 57 55 54 53 53 53 54 53 52 51 48 46 45 44 44
20 20 21 21 22 24 25 24 24 25 27 26 23 22 22 23 21 22 27 30 31 35 40 44 46 46 49 54 62 71 80 88 93 96 99 101 103 104 104 105 107 107 108 108 106 103 99 97 94 91 88 86 84 83 83 84 82 79 77 74 72 72 71 69 68 67 65 64 62 61 59 57 55 53 53 52 53 54 54 53 51 48 45 43 44 44
20 21 23 24 24 25 26 25 24 23 24 26 24 22 22 22 20 20 23 28 31 32 35 40 43 45 48 52 60 69 78 86 91 95 99 102 104 105 105 106 108 109 109 110 109 106 102 99 96 93 90 87 86 84 81 82 83 81 80 75 70 71 71 67 66 65 65 65 64 62 61 58 55 53 52 52 52 54 54 53 50 46 44 44 45 44
24 24 24 25 25 24 25 26 25 24 23 23 22 20 20 21 20 19 20 26 30 29 31 38 42 44 48 50 57 65 73 82 87 91 97 101 103 105 105 106 108 109 110 111 111 108 103 100 97 94 90 88 86 84 80 80 83 83 83 79 72 71 71 67 63 63 65 65 64 64 62 59 56 54 53 53 53 53 53 52 49 45 45 47 46 44
24 23 24 24 24 24 25 25 26 27 26 25 22 19 18 19 20 19 19 23 28 27 29 37 40 43 45 46 53 61 68 76 83 88 93 97 100 103 104 104 106 108 110 111 111 109 104 100 97 95 92 89 86 85 81 79 82 83 83 83 76 70 71 69 65 64 66 65 65 64 63 59 57 56 55 55 56 55 54 52 48 46 48 49 46 44
23 22 23 24 24 24 25 26 27 28 28 28 26 21 18 17 18 19 19 21 25 25 27 34 37 39 40 42 49 57 64 72 79 84 90 95 99 102 103 104 105 108 110 111 111 109 105 101 98 96 94 90 87 87 85 81 80 80 80 83 79 71 70 71 68 66 66 65 64 63 62 61 60 59 57 57 57 56 54 51 48 47 49 49 46 43
22 22 22 23 24 24 25 26 28 28 28 29 28 26 22 17 16 18 19 19 21 22 25 31 34 35 38 41 48 54 60 68 75 80 85 92 97 99 101 103 106 108 110 110 109 108 105 101 99 96 94 90 87 87 87 83 80 79 78 81 81 77 73 72 70 68 67 66 65 64 64 63 61 59 58 58 57 55 53 51 48 48 49 48 45 44
21 22 23 24 24 25 25 26 27 28 29 29 29 29 27 22 18 18 19 19 18 19 22 28 32 34 37 40 44 49 55 62 70 75 80 88 94 97 99 103 106 108 109 110 110 109 106 102 99 97 94 91 87 87 88 85 81 79 77 77 80 81 78 74 72 70 69 68 67 66 64 60 58 58 59 58 57 54 52 51 48 47 49 47 44 44
20 21 22 23 24 24 25 26 26 27 30 32 32 32 31 28 22 18 18 18 16 17 20 25 30 34 35 36 39 45 50 57 64 70 75 83 89 93 98 103 107 109 110 110 110 108 105 103 101 99 96 92 88 87 89 87 82 80 78 74 75 79 78 75 72 70 69 68 67 65 62 58 55 56 57 56 55 53 52 50 47 46 48 46 44 45
20 21 20 20 21 23 25 25 26 28 30 32 32 33 35 32 26 19 17 16 15 16 18 21 26 31 31 30 34 40 45 51 59 65 71 76 82 87 94 101 106 108 108 107 107 106 104 103 102 100 98 95 90 87 88 89 84 80 79 75 72 74 75 72 70 70 69 68 67 65 61 58 56 55 55 54 53 52 50 48 46 46 48 47 45 46
20 21 22 22 23 23 23 24 26 28 30 31 32 33 34 32 27 22 18 16 14 14 16 18 23 28 27 25 30 36 43 49 56 62 67 71 78 84 90 98 104 105 103 103 105 104 103 102 101 101 99 96 92 88 86 88 86 82 80 76 71 71 72 70 70 72 71 69 69 65 60 58 56 55 54 53 52 50 48 48 48 48 49 50 49 48
18 18 19 21 22 23 23 24 25 27 28 30 31 32 33 31 28 23 19 16 15 13 14 16 20 23 23 23 28 34 40 46 51 57 62 67 74 80 87 95 101 102 100 99 100 102 102 102 101 102 100 97 94 91 87 86 86 83 80 77 71 71 72 71 72 73 72 70 69 65 62 59 56 54 54 54 53 51 49 50 50 50 51 52 52 51
15 15 17 18 20 23 25 27 28 28 28 29 30 30 31 30 28 24 20 17 15 13 12 13 16 19 20 21 26 31 36 42 47 53 60 65 71 76 82 89 97 101 99 97 97 99 101 102 102 101 100 97 95 93 89 86 85 83 81 78 74 71 72 73 72 71 70 70 69 65 63 60 57 56 56 56 55 54 53 53 53 52 53 54 54 54
16 20 23 26 28 30 31 31 31 31 30 30 30 30 30 30 29 26 22 17 14 13 11 12 14 15 17 18 22 28 34 39 44 50 56 61 65 70 76 84 92 97 96 95 96 99 101 103 102 100 100 99 96 93 90 87 85 83 81 79 74 71 72 71 70 69 68 68 68 66 62 61 60 59 59 58 58 57 56 55 55 55 56 57 56 55
23 28 31 34 35 36 36 34 32 31 32 32 31 31 31 31 31 28 24 20 16 13 12 11 12 13 13 15 19 25 31 37 42 46 51 57 61 66 72 79 87 91 91 91 94 98 101 102 101 100 101 100 97 94 90 87 87 85 83 79 74 71 70 65 61 62 61 63 68 67 64 63 62 62 62 60 59 58 57 57 57 58 59 59 57 56
27 31 34 36 38 39 38 36 34 33 33 34 34 34 33 33 32 30 27 23 19 16 12 10 10 11 11 13 17 23 28 34 40 43 48 53 57 63 69 76 83 86 86 87 91 97 101 101 101 101 101 99 96 94 91 89 89 87 84 82 76 71 68 62 56 57 54 56 64 66 66 66 64 62 61 59 58 57 56 57 58 58 59 58 57 54
24 30 33 35 37 38 39 39 38 37 37 38 39 38 38 36 34 32 29 26 22 18 14 10 8 8 10 11 15 21 25 31 37 42 45 49 53 59 65 72 78 83 86 90 95 99 102 103 102 102 101 99 96 94 91 90 89 87 84 82 77 71 67 61 56 55 52 52 58 61 63 64 62 59 58 56 56 55 53 54 55 56 57 56 54 52
22 28 31 32 34 35 37 39 39 39 39 40 40 40 40 40 37 35 31 28 23 19 15 12 8 7 7 9 13 19 24 29 33 38 41 45 49 55 62 68 75 83 89 95 100 102 104 105 103 102 100 98 95 93 91 89 88 85 82 80 77 72 68 63 57 53 51 52 56 58 58 59 58 56 55 54 53 52 50 51 52 53 54 53 51 50
19 25 28 29 30 31 33 36 37 38 39 41 41 41 42 43 41 37 33 29 25 21 17 13 9 7 5 7 11 16 22 26 30 33 36 39 43 49 57 63 72 80 85 90 95 99 102 103 102 101 99 97 95 92 90 88 87 85 82 80 78 74 69 66 60 53 52 53 53 54 55 56 56 55 54 52 51 50 48 48 49 49 49 48 47 47
17 22 25 27 29 30 32 34 36 37 39 41 43 43 43 43 41 39 35 32 28 24 19 15 11 7 4 3 7 12 17 23 27 29 31 32 34 39 48 57 66 74 79 83 88 92 95 98 99 98 96 95 93 90 89 88 87 86 85 83 80 75 69 67 64 56 52 54 52 51 53 54 55 54 53 51 51 49 47 45 45 44 44 43 43 44
12 17 21 25 28 29 30 31 33 36 39 41 42 42 41 41 41 40 38 34 31 27 24 20 15 10 7 4 2 7 12 17 23 26 26 27 28 32 39 48 57 65 71 76 82 85 87 90 93 94 93 91 90 89 88 87 86 86 86 82 78 73 68 68 69 63 55 55 57 54 51 51 53 53 52 51 50 48 45 42 42 42 41 41 42 44
7 13 18 23 26 27 28 28 31 35 38 39 39 39 40 40 41 43 42 38 33 30 28 26 22 17 12 8 3 1 6 11 17 22 25 26 26 27 31 39 47 54 62 69 75 78 81 85 88 89 89 88 87 86 86 85 85 85 84 82 79 73 68 67 70 68 59 55 58 56 50 48 50 50 51 52 50 47 43 41 41 41 41 42 43 44
4 10 15 21 25 26 26 27 30 33 35 35 35 36 38 39 42 45 45 41 38 34 32 31 28 24 18 12 6 2 3 8 12 18 22 26 27 27 27 32 37 43 52 62 70 75 79 83 86 87 86 85 83 83 84 83 83 84 84 84 81 76 71 66 67 69 64 56 55 55 52 50 50 50 52 53 49 46 44 42 42 42 43 44 43 44
2 8 14 19 22 25 26 27 27 28 29 30 30 32 36 40 43 45 45 43 41 38 36 35 34 30 25 18 11 5 1 5 9 13 18 22 27 29 28 27 28 31 37 48 60 69 75 79 82 84 85 84 83 83 82 82 82 83 84 84 82 80 78 71 65 66 67 61 56 53 51 50 49 50 52 52 48 46 44 43 43 44 44 43 43 43
1 7 13 17 20 23 27 25 22 22 27 29 29 31 35 39 43 45 44 41 40 40 38 38 38 35 30 24 16 8 3 3 7 11 16 20 25 29 32 31 28 27 29 36 46 58 67 72 76 79 83 84 84 83 82 81 81 81 82 84 83 83 83 77 68 65 66 63 58 53 49 47 47 47 49 49 47 46 45 45 45 44 43 43 42 43
3 5 10 14 18 22 26 24 20 21 26 29 31 31 32 36 40 43 41 38 38 40 40 41 41 38 33 29 22 14 9 4 4 9 14 19 24 29 33 35 35 33 32 34 39 48 57 64 70 74 77 81 82 82 81 81 80 81 82 83 84 83 80 75 69 66 65 65 63 57 51 46 42 40 42 44 46 46 47 46 46 45 44 43 42 43
7 6 8 11 16 20 24 24 21 21 24 28 29 28 28 32 37 37 37 38 40 41 41 41 41 39 36 33 28 23 18 12 5 6 10 16 22 27 31 36 40 41 39 37 38 43 51 59 66 71 74 78 80 81 81 81 80 80 81 81 81 79 76 73 69 65 65 66 65 62 56 47 39 38 41 44 45 48 49 48 46 44 43 43 42 42
9 7 7 9 14 19 22 22 20 20 22 23 25 26 27 29 30 31 35 38 38 38 39 39 40 39 37 35 32 28 24 20 14 8 5 11 17 23 28 32 36 40 42 42 41 42 45 51 59 66 71 75 79 80 81 81 79 79 78 77 76 74 73 73 71 68 66 65 63 62 59 49 42 44 49 49 47 47 49 48 46 44 43 43 42 41
12 11 9 9 13 17 20 20 20 20 20 19 20 23 24 22 24 29 34 35 33 34 37 39 40 39 37 35 33 30 28 26 23 18 11 5 7 14 21 26 31 36 39 42 43 43 43 46 52 60 67 72 75 77 78 79 78 77 76 74 73 73 73 72 71 68 67 65 60 56 55 50 44 46 52 52 47 46 48 49 46 44 44 43 41 39
15 14 12 9 12 16 19 21 21 20 17 17 19 20 19 20 23 28 31 31 32 34 34 35 37 38 37 36 35 33 32 32 29 25 20 13 6 5 13 19 25 30 33 37 39 41 42 43 47 54 62 67 70 72 74 75 75 75 74 73 72 73 74 74 73 70 68 65 60 55 52 51 47 47 52 53 49 47 48 49 47 45 44 42 40 38
17 17 14 11 11 15 17 19 19 17 16 17 18 18 18 20 23 24 26 27 29 29 29 30 31 32 34 35 36 36 37 38 36 32 28 23 17 9 3 10 17 22 26 30 34 37 39 41 43 48 54 59 62 65 67 69 71 72 71 71 71 72 73 74 74 73 70 67 63 57 52 51 50 49 51 53 52 50 49 48 48 45 43 42 39 37
18 19 17 14 12 11 13 17 20 19 17 17 19 18 18 19 20 21 22 23 24 25 26 26 26 27 28 31 33 35 38 38 36 34 32 30 26 21 13 4 6 13 18 22 26 30 34 37 39 40 44 49 54 57 60 64 67 68 68 69 70 70 70 71 71 71 70 68 64 57 51 50 50 50 50 52 52 51 49 49 49 46 44 43 40 37
18 20 19 18 15 12 12 18 22 22 20 19 19 18 17 16 17 16 16 17 20 21 21 21 21 21 23 25 27 30 32 31 30 29 29 29 27 25 21 14 7 5 11 16 20 24 28 32 35 36 39 43 47 51 55 58 61 64 66 68 68 67 67 68 68 68 68 67 63 57 52 49 48 48 49 51 52 51 49 50 49 46 44 44 40 37
15 20 21 20 19 15 14 18 23 24 22 20 19 17 15 15 15 14 12 14 16 16 17 19 19 19 20 22 23 24 25 26 25 24 23 25 26 26 23 20 17 11 6 5 9 16 24 29 33 37 39 41 43 47 50 54 58 62 65 66 66 65 65 65 66 66 66 64 58 52 49 46 45 48 52 53 55 54 51 51 50 46 44 44 41 38
14 18 22 22 21 19 18 18 21 23 22 20 19 19 17 16 15 14 13 14 16 16 15 16 18 17 17 18 20 21 22 24 25 23 20 20 22 24 24 23 20 16 12 8 2 6 14 20 27 33 37 39 41 43 46 50 54 58 62 62 62 63 63 62 63 63 62 59 55 51 50 47 46 51 57 57 57 57 54 52 50 47 46 46 43 40
14 16 20 24 24 23 22 21 20 22 22 21 21 20 19 17 17 15 14 15 16 14 11 11 13 14 13 14 18 20 21 23 23 21 20 20 20 19 20 20 18 15 12 9 6 6 8 12 18 24 28 31 33 35 40 47 51 54 57 58 58 58 58 58 59 59 58 58 56 53 52 49 48 53 58 57 56 57 55 53 51 49 48 46 44 42
15 15 18 22 26 26 25 23 22 22 22 23 23 21 20 20 19 18 17 17 16 14 14 12 11 12 14 15 17 19 20 22 22 19 19 20 17 12 10 12 13 13 11 12 14 15 13 12 12 14 17 21 25 29 34 42 48 50 52 53 54 54 54 55 56 57 59 61 60 58 55 53 52 56 59 57 55 55 55 53 51 50 49 48 46 46
15 16 17 20 24 28 28 26 24 23 23 24 24 23 22 23 22 20 20 20 18 16 16 14 13 14 16 17 17 18 20 22 21 19 19 19 17 13 11 9 10 11 14 17 15 11 10 14 15 13 13 12 16 24 31 37 43 45 46 47 49 51 53 54 54 55 58 61 64 65 63 60 57 56 55 54 54 53 53 52 51 50 50 51 50 50
Wind_Direction
296 292 288 285 281 276 271 266 263 261 257 254 251 249 246 242 238 236 235 234 234 235 231 228 224 221 219 218 218 220 222 223 223 223 223 223 223 222 224 223 222 224 223 220 219 221 222 221 222 225 226 226 226 226 228 231 231 230 232 233 232 233 232 233 234 233 235 236 237 239 241 241 241 240 243 245 247 248 249 250 252 253 255 256 257 260
298 294 290 287 284 281 276 270 265 261 258 255 252 249 247 244 239 236 236 234 233 234 232 228 225 222 220 218 218 219 220 222 222 221 222 223 223 222 224 223 222 223 223 221 219 220 222 221 221 224 225 227 227 226 228 229 228 228 230 232 231 232 232 232 232 232 233 235 236 236 237 239 243 244 246 248 248 249 250 250 251 253 254 254 256 258
301 297 293 288 283 281 279 275 270 264 260 256 253 250 248 245 241 236 235 233 232 234 233 229 226 223 220 218 218 219 220 222 222 220 221 223 222 221 223 223 221 223 222 222 220 219 221 221 220 222 224 226 226 225 228 229 226 227 229 231 232 231 231 231 231 232 232 233 234 234 230 229 236 242 246 249 249 250 251 251 250 251 253 254 256 258
305 301 296 291 285 280 277 276 273 269 264 259 255 251 248 246 243 238 235 233 231 232 232 230 227 222 220 218 218 219 220 222 223 222 220 222 222 220 222 223 221 223 222 222 222 218 220 221 219 221 222 225 226 222 225 228 229 230 229 229 231 231 231 231 231 232 232 233 233 233 229 223 226 232 238 243 248 249 249 250 250 251 253 254 256 258
308 304 299 293 288 282 277 274 272 270 267 263 259 254 249 245 243 240 237 234 232 232 231 230 228 222 219 219 218 219 220 220 222 223 221 222 222 220 222 223 222 222 222 222 222 219 220 221 219 219 221 224 226 223 223 227 229 231 231 229 229 230 231 231 230 232 233 233 233 233 231 224 221 223 227 232 238 242 245 249 252 253 254 255 255 257
312 308 303 298 291 285 279 275 271 269 268 266 262 258 252 247 244 240 238 236 234 234 232 230 228 223 218 218 218 219 220 220 219 221 221 221 222 221 222 223 221 221 222 222 222 220 219 222 220 218 220 223 226 226 224 226 228 229 231 229 226 227 230 230 231 231 232 233 233 233 232 228 223 222 223 226 230 237 243 249 253 255 256 257 258 260
315 312 308 304 298 292 285 279 273 270 268 267 264 260 255 250 246 242 239 238 237 236 234 231 228 223 218 216 217 218 219 219 219 219 220 220 220 220 222 223 222 221 223 223 222 221 219 221 221 218 219 222 224 226 225 226 228 229 231 231 227 226 228 229 230 231 231 232 233 233 233 232 229 226 225 227 230 235 239 243 247 253 257 259 260 262
318 316 313 310 305 300 295 288 280 274 270 268 266 263 259 253 249 245 241 239 239 237 235 232 228 224 219 215 215 217 217 217 218 218 219 220 219 219 221 223 223 222 224 223 222 222 220 220 222 219 217 219 222 224 225 226 227 229 231 232 229 227 228 229 229 230 230 231 232 233 233 233 233 231 229 230 232 234 237 239 242 249 254 258 261 263
322 321 318 315 312 307 302 297 289 281 275 270 268 266 263 258 252 247 244 241 240 239 237 234 231 226 220 215 214 216 217 217 216 216 218 219 219 219 219 221 222 222 224 225 222 222 221 219 222 220 216 217 220 222 224 225 226 226 227 228 227 226 227 228 229 230 230 230 231 232 234 234 234 235 234 234 235 236 238 240 243 247 252 256 259 262
327 326 322 318 317 315 312 307 299 291 283 276 271 268 265 263 257 251 246 243 241 240 238 235 233 228 220 216 215 215 216 217 216 216 217 217 218 219 220 221 221 220 222 226 224 222 221 219 220 220 216 216 218 220 222 224 225 224 224 225 226 227 229 229 228 229 230 230 231 232 234 234 234 235 236 237 238 239 241 243 245 248 252 255 258 261
330 330 328 327 326 323 321 316 310 302 293 285 278 273 268 265 261 257 249 243 240 239 238 236 233 229 220 216 216 216 216 218 217 216 216 217 217 218 220 221 221 219 220 223 223 221 221 220 218 218 218 216 216 218 220 222 223 224 225 227 229 231 232 230 228 229 229 230 231 232 233 234 234 235 236 238 240 241 242 244 246 249 252 255 257 260
333 334 335 335 333 329 327 324 320 316 308 297 287 280 275 269 263 260 255 245 239 238 239 237 234 230 222 216 216 216 215 217 217 216 216 217 217 217 219 220 219 218 219 222 222 219 218 219 217 216 218 218 217 217 219 220 222 223 226 229 231 233 232 228 228 230 230 230 231 232 232 233 234 235 236 238 240 242 243 245 247 249 252 255 257 259
333 338 341 340 339 339 338 334 330 327 321 311 300 289 282 275 267 261 257 250 241 238 239 239 236 231 224 218 216 216 215 216 216 215 214 216 218 217 217 218 218 218 219 222 222 219 218 219 218 215 216 219 219 218 219 221 222 223 227 229 231 232 231 229 230 233 232 231 232 233 232 233 234 235 237 238 240 242 244 246 248 249 252 254 257 259
338 343 347 346 346 350 348 341 337 335 328 321 311 299 288 279 272 266 260 253 245 239 237 238 237 233 227 221 217 215 216 216 215 215 213 213 216 217 216 217 217 217 219 221 222 221 219 219 219 216 216 219 220 219 219 220 222 222 225 228 229 230 231 232 235 235 233 232 233 234 234 234 235 236 237 238 240 242 243 245 247 249 251 253 256 258
347 349 353 356 355 352 349 345 346 345 337 329 320 308 296 284 276 269 264 257 248 241 238 237 237 234 229 223 217 214 216 216 215 214 214 212 213 215 215 215 216 216 217 220 222 222 220 219 219 217 216 217 220 220 218 219 220 220 221 224 228 230 232 235 236 234 233 232 232 234 234 235 235 236 237 239 240 242 243 244 246 248 250 252 255 257
358 359 1 3 1 353 348 347 349 350 345 335 325 315 305 293 283 272 266 260 252 244 241 238 235 232 228 223 218 215 215 217 215 213 214 213 212 213 213 213 214 215 216 218 221 221 220 219 219 218 216 216 219 220 218 218 220 220 219 221 227 231 232 232 231 230 231 232 233 233 234 234 235 236 238 239 239 241 242 244 246 247 249 251 254 257
8 6 4 3 360 354 351 352 351 349 348 340 328 321 312 300 289 276 267 263 256 248 244 240 234 231 227 221 219 217 216 218 217 215 215 214 212 213 213 212 213 214 215 217 220 221 220 219 219 219 217 216 217 220 219 217 219 220 219 221 225 229 231 228 226 228 230 231 233 234 233 234 234 235 236 237 238 240 241 244 245 246 248 251 253 256
10 7 4 1 360 359 358 358 356 353 352 347 339 334 325 311 297 282 271 265 259 251 246 243 237 233 229 222 220 218 216 218 219 216 215 215 214 213 213 213 213 214 215 217 219 221 220 219 219 219 218 216 216 219 220 217 218 220 219 221 222 224 228 230 229 231 233 232 233 234 234 233 233 234 235 236 237 239 241 243 244 245 249 251 252 254
9 7 6 6 5 5 4 2 0 359 359 358 356 352 341 325 310 294 279 270 262 254 248 245 241 236 231 224 222 219 216 218 219 217 215 215 214 213 212 213 213 214 216 217 218 220 220 219 218 219 218 217 215 217 220 218 217 219 219 219 220 219 223 230 232 232 233 233 233 234 235 234 233 234 234 235 238 240 241 243 243 246 250 251 251 252
10 10 11 12 10 10 10 7 5 4 5 7 7 5 356 341 329 310 291 276 267 260 251 247 243 238 232 225 222 220 217 217 219 218 216 216 215 213 211 212 213 213 215 216 218 219 220 219 218 219 219 218 215 215 219 220 218 219 219 219 220 220 222 229 233 233 232 233 233 234 236 236 234 234 235 237 239 240 242 244 243 245 249 250 250 251
14 17 18 17 15 14 13 11 9 8 9 11 13 13 6 353 344 325 301 286 277 267 255 249 245 239 232 226 222 221 219 218 219 219 217 216 216 213 211 211 213 214 214 215 217 218 219 218 218 219 219 218 216 215 218 220 218 218 219 219 220 222 223 227 232 234 234 235 235 236 238 238 235 235 237 238 239 240 242 243 243 246 250 251 251 252
21 24 25 21 17 17 16 13 11 11 14 15 15 17 12 359 349 334 311 297 286 271 258 250 248 244 236 228 223 221 219 218 219 220 218 217 217 214 211 211 213 214 214 214 216 217 218 217 217 218 218 218 216 215 217 220 219 218 220 219 219 221 224 226 230 233 234 234 236 238 239 238 236 237 240 241 241 241 242 244 245 249 253 253 252 253
25 25 25 21 18 19 20 15 11 14 19 19 18 20 16 4 351 338 322 305 289 274 262 253 250 247 239 230 225 222 220 218 218 219 219 217 217 216 213 212 214 216 215 214 215 217 217 217 217 217 218 217 215 214 217 219 219 218 220 219 217 219 221 224 227 230 230 232 237 240 241 240 239 242 243 243 242 242 243 246 249 254 256 254 253 254
32 29 26 24 21 22 22 18 17 21 22 21 21 22 19 9 356 344 332 314 295 278 264 253 248 246 241 232 227 224 220 218 217 218 218 216 216 215 213 213 216 218 217 215 214 216 217 217 217 217 218 217 215 214 215 218 218 218 220 219 217 216 218 220 224 228 229 233 237 241 243 243 243 244 246 246 246 244 245 249 252 255 256 255 255 256
39 37 34 33 30 29 27 25 27 29 27 25 25 24 21 15 4 353 343 329 312 294 274 260 252 249 243 232 225 223 221 219 217 217 217 216 214 214 213 213 215 218 218 216 215 215 216 217 217 217 218 218 216 215 215 217 217 217 219 220 217 215 214 216 221 227 230 234 238 242 245 247 246 246 248 249 248 248 248 250 252 252 253 255 256 257
43 41 39 37 37 36 34 34 34 34 31 29 28 26 24 20 13 4 354 342 329 315 294 270 257 251 246 236 227 223 221 219 218 216 216 215 214 213 213 213 214 217 218 216 215 214 215 217 217 218 218 218 217 216 215 217 217 217 218 220 217 215 214 215 219 226 232 236 240 243 245 247 248 250 251 251 249 248 249 249 251 251 252 254 256 258
52 51 48 46 45 43 42 40 40 38 36 34 31 29 27 24 21 14 4 354 345 331 312 283 262 251 246 240 232 226 221 218 217 217 216 216 214 213 212 213 214 217 217 215 214 214 215 217 217 217 218 218 218 217 215 215 217 217 218 219 217 215 215 216 217 222 231 238 242 244 245 247 249 251 252 251 249 248 248 248 250 251 252 254 256 258
61 58 56 54 52 50 48 46 45 43 40 38 35 33 31 29 26 22 14 6 359 346 328 302 279 261 249 243 233 226 222 218 216 216 216 216 214 212 211 211 214 216 216 215 215 215 215 217 217 217 218 218 217 217 215 214 216 217 217 219 218 215 215 217 216 217 226 238 243 244 246 247 248 250 250 250 248 247 247 248 249 251 253 255 257 258
66 63 61 57 54 51 48 47 46 45 44 42 40 37 35 33 31 27 22 16 9 360 346 322 294 272 255 244 233 225 221 218 216 215 215 216 214 212 211 210 212 214 214 213 214 216 216 217 217 216 218 218 217 217 215 213 215 216 217 219 219 216 215 216 212 208 216 235 243 244 245 245 246 248 248 248 248 247 247 248 249 251 253 255 257 258
69 68 64 59 54 50 48 46 44 45 45 44 43 41 38 36 33 31 28 23 18 10 359 343 315 283 258 242 232 223 217 217 217 216 216 216 214 213 212 211 210 211 210 209 210 213 215 216 216 216 217 218 217 217 215 214 215 216 217 219 219 216 214 213 209 204 209 229 242 243 243 244 244 245 246 246 247 247 247 248 249 251 253 255 257 259
74 72 67 60 55 52 50 48 46 46 48 48 47 45 42 39 36 34 32 29 24 20 13 2 345 310 270 242 229 222 216 214 216 217 218 217 215 214 213 211 210 211 211 209 208 210 213 215 216 216 217 217 217 217 215 214 215 216 217 219 219 217 213 210 208 205 206 223 242 246 243 241 242 243 245 245 245 246 246 247 249 251 253 255 258 259
78 75 70 64 58 54 52 50 48 48 49 49 48 47 45 41 38 36 35 33 31 30 27 20 8 347 301 250 227 220 217 214 214 216 219 220 218 217 215 213 212 213 215 214 212 211 212 214 215 216 217 217 217 217 215 214 214 215 216 218 219 217 214 209 207 205 204 214 236 249 245 240 241 243 244 244 245 245 246 246 248 250 252 255 257 258
84 81 77 69 61 55 51 48 48 49 51 51 49 47 45 43 41 39 37 37 36 35 34 33 31 25 2 282 233 220 217 215 213 213 216 220 221 220 220 217 215 216 217 217 217 216 215 215 216 217 217 217 217 216 215 214 213 213 214 217 218 218 215 209 207 209 209 209 221 240 245 240 238 240 242 244 245 245 245 246 248 250 252 253 253 253
91 87 82 75 65 56 50 46 46 48 50 49 47 46 47 47 45 43 40 39 40 39 38 36 36 42 47 37 254 224 219 217 215 211 209 213 216 217 219 221 221 221 220 219 220 220 218 217 218 218 218 217 217 216 215 214 212 213 214 215 216 217 217 214 211 212 215 211 212 225 237 237 235 238 241 243 244 245 245 246 247 248 250 250 250 250
91 89 86 82 73 61 51 44 44 48 48 46 46 49 51 52 51 49 44 41 41 42 43 41 36 36 41 46 48 213 216 216 218 213 205 202 206 210 215 220 223 225 224 222 221 222 221 220 220 221 220 219 217 216 216 214 212 212 214 215 214 213 214 215 215 214 215 216 215 220 227 231 233 237 241 243 244 245 246 246 246 247 248 248 249 251
85 92 89 86 80 71 59 46 43 46 46 45 48 54 57 58 57 53 47 44 44 44 46 46 41 35 32 34 41 59 202 204 211 215 208 199 195 196 204 214 220 224 226 224 222 221 221 221 221 222 222 221 220 218 217 215 213 212 213 214 214 213 212 211 212 213 215 219 221 224 229 231 231 235 239 242 244 245 246 246 246 246 247 248 250 252
75 97 93 90 87 81 71 56 44 42 43 45 53 62 64 63 59 53 47 45 47 48 49 50 47 41 34 28 27 34 168 192 194 204 206 201 193 187 188 198 211 218 223 225 224 222 221 220 221 222 222 221 221 220 218 216 214 212 213 213 214 215 214 212 209 210 214 219 222 227 231 231 229 231 236 240 243 244 245 246 246 246 248 249 250 252
144 112 104 100 95 87 80 70 56 48 47 48 53 60 62 62 61 56 49 45 47 51 53 54 51 47 42 35 29 31 56 168 182 187 191 193 192 186 181 183 192 204 213 220 224 224 224 222 220 220 221 221 220 220 219 217 215 214 213 214 214 214 216 215 214 214 216 219 222 225 228 228 227 230 235 239 242 244 244 245 246 247 248 249 250 253
220 144 120 108 98 91 87 82 72 59 52 50 51 52 53 54 56 55 52 51 53 54 55 57 54 51 49 46 41 41 50 75 161 179 183 186 189 188 182 176 178 187 200 210 217 222 223 223 220 219 220 221 221 220 219 217 216 215 214 214 214 215 216 216 216 217 218 221 223 224 225 224 225 231 238 241 242 243 244 245 246 247 249 250 251 254
233 183 142 117 104 98 93 87 79 67 57 53 54 55 52 49 49 50 52 55 55 54 55 58 57 55 53 52 50 50 51 54 82 152 178 186 189 192 189 181 178 181 188 197 207 215 219 220 219 217 217 219 220 219 218 217 216 215 215 215 215 216 216 215 215 216 217 219 222 224 224 223 222 228 239 244 244 243 244 245 246 248 249 250 252 254
235 211 175 136 119 108 97 90 84 76 65 58 59 60 55 50 51 55 56 56 54 52 53 58 59 58 56 55 56 59 60 61 65 79 141 184 192 196 196 192 187 185 186 189 197 205 212 216 218 217 216 217 218 217 217 216 216 215 216 216 216 215 215 214 215 216 215 218 222 223 222 222 220 220 228 236 241 242 243 244 246 247 248 250 252 255
234 229 209 163 133 116 106 102 98 89 80 72 70 67 61 59 63 63 61 59 56 53 54 60 62 61 59 58 60 63 66 68 67 66 72 111 186 200 200 198 196 194 191 191 193 197 203 209 214 216 216 216 217 217 216 216 215 215 216 216 215 214 214 213 214 215 215 217 220 220 218 220 220 219 223 230 239 243 242 243 245 246 248 251 252 254
232 232 221 184 146 129 121 114 105 98 92 85 79 76 75 74 70 64 61 61 58 54 56 61 62 61 62 63 64 66 67 68 67 66 66 68 84 187 203 202 202 202 199 195 193 194 197 202 208 213 215 216 217 217 216 216 215 215 216 215 214 213 213 213 214 216 216 218 220 220 219 218 218 220 223 230 240 245 242 242 245 246 247 250 252 251
222 228 230 211 171 146 133 121 113 114 112 100 93 91 88 80 72 67 64 63 62 64 65 63 57 56 60 63 65 68 70 68 64 62 63 63 63 69 158 199 202 203 202 199 195 193 192 195 202 209 213 215 217 217 217 216 216 215 215 215 214 214 214 214 215 217 218 220 222 222 220 217 217 221 225 231 240 244 242 242 245 245 247 250 249 247
218 224 234 229 204 173 151 139 134 136 134 120 107 101 94 87 80 75 71 69 73 77 76 68 59 56 57 60 62 66 68 66 61 59 59 60 59 58 58 79 188 199 200 200 198 194 191 193 198 204 209 212 215 217 217 216 216 215 215 214 214 215 215 215 216 216 218 220 221 220 218 218 220 225 230 234 240 243 241 241 243 244 246 248 247 243
225 225 234 235 226 210 183 162 152 149 147 134 117 107 104 100 95 87 80 75 76 79 79 75 71 69 66 65 66 67 68 66 62 57 55 57 60 59 56 55 71 154 187 193 195 195 193 193 195 199 204 208 211 214 216 216 216 215 215 214 214 215 215 215 215 216 217 219 219 219 221 224 227 231 234 237 241 242 241 242 244 244 245 247 246 242
238 226 229 233 234 230 209 182 165 157 153 142 127 120 119 118 114 110 102 91 85 89 92 90 90 89 82 75 75 76 77 77 74 66 58 56 60 62 60 58 59 63 88 154 190 199 199 199 198 197 198 203 207 210 212 214 214 214 214 213 214 214 214 214 215 215 216 216 215 218 225 230 233 237 239 241 243 245 244 243 245 245 245 247 246 241
256 233 227 229 234 237 228 207 184 170 162 152 141 135 132 132 132 128 122 112 103 100 99 97 96 96 90 85 87 87 85 84 83 80 74 68 65 66 67 65 64 61 58 51 47 207 203 203 203 199 197 198 203 207 209 210 212 213 213 213 213 212 212 213 214 215 215 213 209 212 221 227 231 238 243 247 249 250 248 246 246 245 245 245 244 241
271 249 233 229 232 237 236 226 208 190 176 165 155 147 142 144 147 145 140 130 117 114 120 117 107 106 107 108 105 98 94 93 91 91 91 83 71 64 65 69 75 76 68 68 98 146 179 196 201 200 199 200 202 206 208 208 209 210 212 212 212 211 211 211 212 212 212 210 206 208 216 221 226 236 244 252 256 255 250 248 247 246 245 246 244 242
276 264 246 234 232 235 237 233 227 214 195 178 166 158 153 154 159 159 156 148 140 141 153 154 138 128 130 132 125 116 112 110 108 108 108 98 84 74 71 74 84 90 89 101 115 123 135 149 161 174 187 198 203 206 207 207 207 208 210 210 210 209 209 210 211 210 208 207 206 207 210 214 222 233 243 251 258 258 253 250 249 247 246 246 245 243
278 270 260 245 234 233 235 235 235 231 214 194 180 172 166 163 165 170 169 161 154 152 156 161 161 154 151 151 148 138 130 126 123 124 126 123 124 135 138 123 117 122 119 115 112 110 116 121 129 144 157 174 199 208 207 205 204 205 207 208 208 207 206 207 208 208 207 205 204 204 205 207 214 224 235 247 257 258 254 251 250 247 246 246 245 244
Height
10459 10458 10456 10454 10452 10452 10454 10454 10455 10455 10456 10458 10459 10462 10465 10469 10476 10481 10482 10487 10491 10493 10501 10510 10518 10521 10520 10529 10540 10547 10552 10553 10558 10569 10577 10585 10593 10601 10607 10617 10625 10629 10637 10644 10647 10650 10653 10662 10670 10675 10679 10683 10689 10696 10704 10709 10712 10717 10720 10724 10729 10733 10739 10743 10746 10749 10752 10755 10759 10762 10764 10767 10770 10773 10775 10777 10779 10781 10783 10785 10787 10788 10790 10792 10794 10795
10453 10452 10450 10448 10445 10444 10445 10446 10447 10447 10448 10449 10451 10452 10455 10459 10465 10470 10472 10478 10481 10479 10487 10496 10502 10505 10511 10525 10534 10536 10538 10538 10546 10559 10569 10577 10586 10595 10601 10610 10617 10620 10629 10635 10638 10642 10647 10656 10665 10668 10672 10676 10682 10690 10696 10701 10705 10710 10714 10718 10724 10729 10734 10738 10741 10745 10747 10751 10755 10759 10762 10764 10767 10769 10771 10773 10775 10777 10779 10781 10783 10785 10787 10789 10791 10792
10448 10446 10444 10442 10440 10438 10437 10438 10439 10440 10440 10441 10442 10444 10447 10450 10454 10459 10461 10466 10469 10467 10474 10482 10484 10491 10505 10519 10523 10525 10527 10528 10537 10552 10562 10568 10578 10589 10594 10600 10607 10612 10620 10625 10629 10637 10642 10650 10658 10662 10666 10670 10677 10684 10688 10693 10699 10703 10708 10714 10720 10725 10728 10732 10736 10740 10743 10746 10751 10755 10759 10762 10764 10766 10768 10770 10771 10773 10775 10777 10779 10781 10783 10785 10787 10789
10443 10441 10439 10437 10435 10434 10432 10432 10431 10432 10432 10433 10434 10436 10440 10442 10443 10448 10451 10454 10456 10454 10460 10466 10470 10483 10498 10507 10511 10516 10521 10527 10538 10550 10558 10562 10570 10582 10583 10589 10600 10607 10614 10616 10621 10631 10634 10640 10650 10655 10661 10663 10669 10678 10683 10688 10694 10699 10705 10710 10714 10719 10722 10727 10731 10734 10738 10743 10747 10751 10755 10759 10762 10764 10765 10767 10768 10769 10770 10772 10775 10778 10780 10782 10784 10785
10438 10436 10435 10433 10431 10429 10428 10427 10425 10425 10425 10426 10427 10429 10432 10433 10434 10438 10441 10443 10444 10443 10449 10456 10462 10477 10490 10496 10503 10510 10515 10524 10536 10545 10552 10556 10563 10572 10574 10581 10594 10599 10603 10606 10613 10624 10627 10633 10644 10650 10655 10657 10662 10672 10680 10684 10690 10694 10699 10703 10708 10712 10716 10722 10727 10730 10734 10739 10742 10746 10751 10755 10758 10760 10762 10763 10764 10765 10766 10769 10772 10774 10776 10778 10780 10781
10433 10431 10430 10428 10427 10425 10424 10422 10421 10420 10419 10419 10421 10422 10424 10425 10426 10430 10432 10433 10434 10435 10441 10447 10455 10469 10480 10487 10497 10505 10510 10520 10529 10533 10540 10547 10556 10564 10565 10572 10582 10587 10592 10598 10608 10618 10621 10627 10637 10644 10649 10652 10658 10667 10675 10679 10683 10688 10692 10696 10701 10706 10711 10716 10721 10726 10730 10734 10738 10742 10746 10750 10753 10755 10757 10758 10759 10761 10764 10767 10768 10770 10772 10774 10776 10777
10429 10427 10425 10424 10422 10421 10419 10418 10417 10416 10415 10414 10415 10416 10417 10419 10420 10422 10424 10424 10426 10429 10434 10440 10448 10458 10466 10475 10487 10495 10501 10510 10517 10521 10528 10535 10545 10554 10556 10561 10571 10578 10585 10594 10604 10611 10616 10622 10630 10637 10643 10648 10653 10660 10667 10672 10677 10682 10687 10691 10696 10701 10705 10710 10716 10720 10725 10729 10732 10736 10741 10745 10748 10751 10752 10754 10756 10759 10761 10764 10765 10766 10769 10770 10772 10773
10426 10423 10421 10420 10418 10417 10415 10414 10413 10412 10411 10409 10409 10410 10411 10412 10413 10415 10417 10418 10421 10423 10428 10436 10443 10447 10454 10466 10477 10482 10487 10495 10501 10509 10517 10524 10533 10541 10547 10555 10565 10576 10581 10588 10598 10605 10612 10619 10623 10630 10638 10642 10647 10653 10659 10666 10671 10677 10681 10685 10691 10696 10699 10705 10711 10715 10720 10723 10727 10731 10736 10740 10744 10746 10748 10751 10754 10756 10758 10760 10762 10763 10765 10766 10768 10769
10424 10420 10417 10415 10414 10413 10412 10410 10409 10408 10407 10405 10404 10404 10404 10406 10407 10409 10411 10414 10416 10419 10425 10431 10433 10436 10447 10461 10467 10469 10473 10479 10486 10497 10506 10515 10523 10530 10537 10545 10557 10571 10578 10582 10592 10599 10606 10614 10617 10624 10631 10634 10639 10646 10653 10659 10664 10669 10674 10678 10684 10689 10694 10700 10705 10710 10714 10718 10722 10727 10731 10735 10739 10741 10744 10748 10750 10752 10754 10756 10758 10760 10761 10762 10764 10766
10421 10419 10415 10413 10412 10411 10409 10407 10405 10404 10403 10402 10401 10401 10400 10400 10401 10404 10406 10408 10411 10415 10419 10420 10420 10426 10440 10451 10452 10454 10461 10469 10479 10490 10498 10506 10515 10522 10530 10538 10549 10565 10572 10575 10586 10594 10599 10606 10612 10617 10622 10627 10633 10640 10647 10652 10658 10663 10667 10673 10679 10684 10689 10695 10700 10705 10709 10713 10718 10723 10726 10730 10734 10737 10740 10744 10746 10749 10751 10753 10755 10756 10758 10759 10760 10762
10418 10415 10413 10411 10410 10408 10406 10404 10402 10401 10400 10398 10397 10397 10397 10396 10397 10398 10400 10401 10405 10408 10408 10408 10412 10418 10429 10438 10441 10446 10456 10464 10475 10486 10492 10498 10506 10515 10524 10534 10546 10559 10562 10564 10574 10584 10591 10597 10604 10609 10614 10620 10627 10633 10640 10646 10652 10658 10663 10668 10674 10679 10684 10690 10695 10700 10704 10709 10714 10717 10721 10725 10729 10732 10736 10740 10742 10744 10747 10749 10751 10753 10754 10755 10756 10758
10415 10413 10411 10409 10408 10406 10404 10402 10400 10398 10396 10395 10394 10393 10393 10392 10393 10393 10393 10395 10399 10401 10399 10402 10406 10411 10421 10432 10436 10441 10449 10456 10464 10475 10484 10492 10500 10509 10518 10528 10540 10549 10550 10552 10561 10571 10578 10584 10592 10601 10607 10613 10620 10627 10634 10641 10647 10653 10658 10664 10670 10675 10681 10686 10691 10696 10700 10705 10709 10712 10716 10720 10724 10728 10732 10736 10738 10740 10743 10745 10747 10749 10750 10751 10752 10753
10413 10412 10410 10408 10407 10405 10402 10400 10397 10395 10393 10392 10390 10389 10389 10388 10388 10389 10387 10389 10393 10395 10394 10397 10400 10404 10414 10424 10428 10433 10439 10445 10453 10464 10475 10485 10493 10501 10509 10518 10529 10536 10539 10543 10551 10560 10568 10574 10583 10594 10601 10606 10613 10621 10628 10634 10642 10649 10655 10660 10666 10672 10676 10681 10686 10691 10696 10700 10703 10707 10711 10716 10720 10724 10728 10731 10734 10736 10739 10741 10743 10745 10747 10748 10749 10749
10412 10410 10409 10407 10405 10403 10401 10399 10396 10393 10390 10389 10387 10386 10385 10384 10384 10384 10382 10383 10387 10388 10389 10390 10394 10401 10409 10415 10421 10426 10430 10435 10444 10455 10464 10472 10479 10488 10498 10507 10516 10524 10529 10535 10543 10553 10562 10569 10578 10588 10596 10601 10607 10614 10622 10628 10636 10644 10651 10656 10661 10667 10671 10676 10682 10686 10690 10695 10698 10702 10707 10712 10716 10720 10724 10727 10730 10732 10734 10736 10738 10741 10743 10744 10745 10745
10412 10409 10408 10406 10403 10401 10400 10398 10394 10391 10387 10386 10384 10382 10380 10379 10380 10380 10378 10379 10381 10381 10383 10385 10389 10395 10401 10406 10411 10416 10419 10424 10433 10443 10450 10457 10465 10474 10486 10496 10505 10512 10519 10527 10535 10545 10555 10563 10570 10580 10589 10597 10601 10606 10615 10623 10630 10638 10646 10651 10656 10661 10667 10672 10676 10681 10685 10689 10693 10697 10702 10707 10712 10716 10720 10723 10725 10727 10729 10731 10734 10737 10740 10740 10741 10741
10411 10408 10406 10404 10403 10401 10398 10395 10393 10391 10387 10383 10381 10379 10377 10376 10376 10376 10375 10374 10374 10376 10379 10380 10382 10387 10391 10396 10401 10405 10409 10413 10423 10432 10436 10443 10452 10461 10472 10483 10491 10500 10509 10516 10523 10532 10544 10554 10562 10571 10582 10592 10595 10599 10609 10618 10625 10632 10640 10646 10651 10655 10661 10666 10671 10676 10679 10682 10687 10692 10697 10702 10707 10712 10716 10719 10720 10722 10724 10727 10730 10734 10736 10736 10737 10738
10409 10407 10405 10404 10402 10400 10397 10394 10391 10388 10385 10382 10379 10377 10375 10373 10372 10372 10372 10370 10368 10373 10374 10372 10375 10379 10382 10388 10393 10396 10402 10407 10416 10425 10430 10436 10445 10453 10463 10473 10481 10490 10498 10506 10514 10523 10535 10547 10556 10565 10576 10587 10592 10596 10605 10614 10620 10626 10634 10641 10647 10650 10655 10662 10667 10670 10672 10676 10681 10686 10692 10698 10703 10707 10711 10713 10715 10718 10720 10723 10727 10730 10731 10731 10733 10734
10410 10408 10406 10404 10402 10399 10396 10393 10389 10386 10382 10379 10376 10375 10373 10371 10369 10368 10368 10366 10364 10368 10369 10366 10369 10372 10377 10384 10387 10390 10397 10402 10409 10417 10424 10433 10441 10448 10458 10468 10476 10484 10490 10498 10507 10516 10528 10541 10550 10559 10569 10581 10589 10594 10601 10609 10614 10620 10628 10635 10642 10646 10650 10656 10661 10664 10666 10671 10676 10681 10687 10693 10698 10701 10705 10708 10711 10713 10716 10719 10723 10726 10726 10727 10729 10730
10411 10409 10406 10404 10401 10398 10395 10392 10388 10384 10380 10377 10373 10371 10370 10369 10366 10364 10363 10362 10361 10363 10364 10362 10364 10369 10374 10380 10382 10384 10390 10394 10399 10408 10416 10423 10431 10440 10451 10460 10469 10476 10482 10491 10500 10507 10520 10533 10543 10551 10561 10573 10584 10589 10593 10601 10607 10614 10622 10629 10636 10642 10645 10649 10653 10658 10661 10666 10671 10676 10681 10686 10691 10695 10700 10703 10706 10709 10712 10716 10720 10722 10721 10722 10725 10726
10411 10409 10406 10404 10401 10398 10395 10391 10387 10384 10380 10376 10372 10369 10367 10365 10364 10360 10358 10359 10359 10360 10361 10359 10361 10365 10368 10372 10374 10377 10383 10388 10393 10401 10409 10415 10423 10434 10446 10453 10459 10466 10474 10485 10494 10503 10515 10527 10536 10546 10555 10566 10578 10584 10587 10593 10601 10608 10615 10622 10629 10636 10640 10643 10648 10652 10657 10661 10666 10671 10675 10680 10686 10691 10695 10698 10701 10705 10709 10712 10716 10717 10716 10718 10721 10721
10411 10408 10406 10403 10400 10397 10394 10391 10387 10383 10378 10374 10370 10367 10364 10362 10361 10358 10355 10355 10356 10357 10357 10357 10357 10359 10362 10365 10369 10374 10380 10384 10388 10395 10403 10408 10414 10425 10437 10444 10449 10456 10465 10475 10485 10494 10506 10519 10529 10540 10549 10559 10572 10579 10581 10586 10596 10603 10609 10617 10624 10629 10636 10641 10644 10648 10653 10657 10661 10665 10670 10675 10682 10687 10690 10694 10698 10702 10705 10708 10711 10712 10712 10714 10716 10717
10411 10409 10407 10404 10401 10397 10394 10390 10386 10381 10376 10372 10368 10364 10362 10360 10359 10357 10354 10352 10352 10352 10353 10354 10354 10355 10358 10362 10366 10370 10374 10379 10384 10389 10395 10400 10407 10418 10428 10433 10437 10444 10454 10466 10476 10486 10499 10511 10521 10531 10540 10551 10564 10573 10576 10581 10590 10597 10603 10611 10619 10624 10631 10637 10641 10644 10648 10652 10656 10661 10666 10671 10677 10682 10686 10691 10695 10698 10701 10704 10706 10707 10707 10710 10712 10712
10412 10410 10408 10405 10401 10397 10394 10390 10385 10380 10376 10372 10368 10363 10362 10360 10358 10355 10353 10350 10349 10349 10350 10352 10351 10351 10355 10361 10364 10366 10370 10374 10379 10383 10389 10396 10405 10415 10424 10428 10430 10435 10447 10460 10471 10482 10494 10503 10513 10523 10532 10542 10556 10567 10571 10576 10585 10592 10597 10605 10613 10619 10626 10632 10636 10639 10643 10647 10651 10656 10661 10667 10672 10677 10682 10686 10690 10694 10697 10699 10700 10701 10702 10705 10707 10708
10412 10410 10407 10404 10401 10398 10395 10391 10386 10381 10376 10373 10368 10365 10362 10360 10357 10354 10352 10349 10348 10347 10347 10348 10348 10348 10352 10358 10361 10363 10365 10368 10371 10375 10382 10390 10398 10408 10418 10424 10427 10432 10443 10456 10467 10478 10489 10498 10508 10517 10525 10534 10547 10558 10563 10569 10579 10587 10592 10599 10608 10615 10621 10626 10631 10634 10639 10643 10647 10651 10657 10663 10668 10673 10677 10682 10685 10689 10692 10693 10694 10697 10698 10699 10702 10704
10414 10412 10410 10407 10403 10400 10396 10392 10388 10383 10379 10374 10370 10366 10363 10360 10357 10353 10351 10348 10346 10346 10346 10346 10346 10347 10351 10354 10356 10358 10361 10364 10368 10373 10378 10384 10391 10399 10409 10417 10424 10431 10442 10455 10465 10475 10484 10493 10501 10508 10517 10528 10540 10549 10557 10564 10573 10581 10587 10594 10604 10610 10616 10622 10627 10631 10636 10640 10643 10648 10653 10659 10663 10668 10673 10677 10680 10684 10686 10688 10690 10692 10694 10695 10697 10699
10416 10414 10411 10408 10405 10401 10396 10392 10388 10385 10381 10376 10372 10368 10364 10360 10357 10353 10351 10348 10346 10345 10345 10346 10346 10347 10349 10350 10352 10354 10357 10361 10365 10369 10372 10377 10385 10394 10403 10412 10419 10425 10437 10451 10463 10472 10480 10485 10493 10502 10513 10523 10532 10542 10552 10560 10567 10576 10582 10588 10597 10605 10612 10618 10624 10629 10634 10637 10641 10646 10651 10655 10660 10664 10668 10671 10675 10678 10681 10683 10685 10687 10689 10690 10692 10694
10416 10413 10411 10408 10404 10400 10397 10393 10389 10386 10382 10377 10373 10368 10364 10360 10356 10354 10351 10348 10346 10344 10344 10344 10344 10345 10346 10348 10350 10352 10354 10357 10361 10365 10369 10374 10382 10392 10400 10407 10414 10421 10434 10448 10459 10467 10472 10477 10487 10498 10507 10514 10524 10535 10547 10557 10563 10571 10577 10583 10592 10601 10608 10614 10621 10628 10633 10635 10638 10644 10648 10653 10657 10660 10662 10666 10669 10672 10676 10679 10681 10682 10684 10685 10688 10690
10415 10412 10410 10408 10404 10401 10399 10395 10392 10387 10383 10378 10374 10369 10365 10361 10357 10354 10351 10348 10346 10344 10344 10343 10343 10343 10344 10346 10348 10350 10352 10355 10358 10363 10368 10374 10381 10388 10395 10403 10411 10420 10434 10448 10457 10461 10465 10470 10481 10491 10497 10505 10517 10528 10540 10551 10557 10564 10572 10578 10587 10596 10604 10612 10620 10627 10634 10637 10637 10641 10646 10649 10653 10655 10657 10660 10664 10667 10671 10675 10677 10678 10678 10680 10683 10685
10414 10412 10410 10407 10404 10402 10400 10396 10392 10388 10383 10379 10375 10370 10366 10362 10359 10356 10352 10349 10346 10344 10344 10343 10343 10343 10343 10344 10346 10348 10351 10354 10356 10360 10366 10371 10378 10385 10391 10398 10406 10417 10432 10446 10453 10457 10460 10465 10475 10483 10489 10499 10511 10521 10534 10545 10550 10557 10566 10573 10582 10592 10600 10609 10616 10624 10635 10640 10638 10639 10643 10645 10649 10652 10653 10656 10659 10662 10666 10670 10672 10673 10674 10675 10677 10680
10414 10412 10409 10407 10405 10403 10400 10397 10393 10389 10384 10380 10376 10372 10368 10365 10361 10357 10353 10351 10348 10345 10344 10343 10343 10343 10342 10344 10345 10347 10349 10352 10355 10359 10363 10369 10376 10382 10388 10395 10403 10412 10421 10427 10434 10442 10450 10457 10466 10474 10481 10493 10505 10515 10528 10539 10545 10553 10562 10569 10578 10588 10596 10605 10612 10620 10631 10638 10637 10637 10639 10641 10644 10648 10649 10652 10654 10657 10661 10664 10667 10668 10670 10671 10673 10675
10414 10411 10409 10407 10405 10404 10401 10398 10396 10391 10386 10382 10378 10374 10370 10367 10363 10360 10356 10353 10350 10347 10345 10344 10343 10343 10343 10344 10345 10347 10348 10351 10354 10358 10362 10367 10375 10380 10385 10393 10399 10403 10406 10409 10416 10427 10437 10447 10457 10466 10476 10488 10499 10509 10521 10533 10542 10551 10560 10567 10575 10584 10593 10601 10609 10616 10626 10634 10635 10633 10635 10638 10640 10642 10645 10647 10649 10653 10656 10660 10662 10664 10665 10667 10669 10671
10413 10411 10409 10407 10406 10404 10402 10399 10396 10393 10388 10383 10379 10375 10371 10369 10366 10363 10359 10355 10351 10348 10347 10345 10344 10344 10344 10344 10345 10347 10348 10350 10354 10358 10362 10367 10374 10379 10384 10390 10396 10401 10406 10411 10417 10422 10430 10440 10450 10460 10472 10482 10491 10503 10516 10529 10539 10549 10558 10564 10570 10579 10588 10596 10604 10610 10618 10628 10633 10631 10631 10634 10637 10638 10640 10643 10645 10648 10652 10655 10657 10660 10662 10664 10665 10666
10413 10411 10409 10407 10405 10404 10402 10400 10397 10394 10389 10384 10380 10377 10374 10372 10370 10366 10362 10358 10354 10351 10349 10347 10346 10345 10345 10346 10347 10348 10349 10351 10354 10358 10362 10367 10373 10379 10385 10390 10394 10399 10406 10413 10419 10423 10430 10438 10446 10456 10466 10476 10486 10499 10511 10522 10533 10542 10549 10556 10564 10574 10584 10592 10599 10605 10611 10619 10627 10630 10629 10630 10632 10634 10636 10638 10641 10644 10647 10651 10654 10656 10658 10659 10660 10661
10414 10411 10409 10406 10404 10404 10402 10401 10399 10395 10390 10385 10382 10381 10378 10375 10373 10370 10366 10362 10358 10354 10351 10349 10348 10347 10347 10347 10348 10350 10351 10353 10355 10358 10362 10367 10372 10377 10383 10389 10394 10399 10406 10412 10418 10424 10431 10439 10445 10453 10463 10473 10482 10494 10504 10515 10527 10535 10541 10550 10561 10571 10581 10589 10594 10600 10606 10611 10617 10623 10626 10627 10629 10630 10632 10634 10636 10639 10644 10648 10650 10652 10653 10654 10655 10656
10415 10412 10409 10405 10403 10403 10402 10402 10400 10395 10391 10388 10387 10384 10381 10378 10375 10372 10369 10366 10362 10358 10355 10352 10351 10350 10349 10349 10350 10351 10353 10355 10357 10359 10361 10365 10370 10376 10381 10387 10393 10399 10405 10411 10417 10424 10432 10439 10445 10452 10461 10471 10480 10490 10500 10511 10523 10532 10538 10546 10556 10564 10573 10582 10588 10595 10602 10606 10609 10614 10620 10624 10627 10630 10630 10631 10633 10636 10640 10644 10646 10647 10649 10650 10651 10651
10415 10412 10409 10406 10404 10402 10402 10402 10400 10396 10394 10393 10391 10387 10384 10381 10376 10373 10371 10369 10365 10362 10358 10356 10355 10353 10353 10353 10353 10353 10355 10356 10358 10360 10362 10364 10368 10373 10379 10385 10391 10396 10403 10409 10416 10423 10430 10437 10444 10452 10462 10472 10481 10489 10498 10508 10518 10527 10533 10541 10550 10557 10565 10573 10581 10588 10597 10603 10605 10608 10613 10619 10625 10629 10629 10628 10630 10633 10637 10639 10641 10642 10644 10645 10646 10646
10415 10413 10410 10408 10405 10402 10400 10400 10401 10400 10399 10398 10395 10391 10387 10382 10377 10374 10373 10372 10368 10365 10362 10360 10358 10358 10357 10356 10356 10356 10357 10359 10360 10362 10364 10366 10368 10371 10376 10383 10390 10395 10401 10408 10414 10419 10426 10434 10443 10453 10462 10471 10480 10488 10496 10505 10514 10521 10528 10536 10544 10551 10558 10566 10573 10578 10587 10595 10599 10603 10607 10612 10617 10622 10624 10624 10627 10630 10633 10634 10636 10637 10639 10641 10642 10642
10416 10413 10411 10409 10407 10402 10399 10399 10402 10404 10402 10399 10396 10392 10388 10384 10379 10376 10376 10375 10373 10370 10366 10364 10362 10362 10361 10360 10360 10360 10361 10362 10362 10363 10365 10368 10370 10371 10373 10378 10386 10394 10400 10406 10412 10418 10424 10432 10441 10450 10458 10467 10475 10484 10493 10501 10509 10517 10523 10531 10538 10544 10552 10562 10569 10574 10580 10586 10592 10597 10602 10606 10610 10614 10617 10619 10623 10626 10628 10629 10631 10633 10634 10636 10637 10637
10416 10414 10411 10409 10407 10403 10400 10400 10402 10403 10402 10399 10396 10392 10390 10386 10382 10379 10380 10381 10378 10374 10370 10368 10367 10366 10365 10364 10364 10364 10364 10364 10365 10365 10367 10369 10371 10373 10373 10374 10379 10386 10394 10401 10408 10414 10421 10429 10438 10446 10455 10463 10472 10480 10489 10497 10504 10511 10518 10525 10531 10538 10549 10560 10567 10571 10577 10581 10586 10591 10597 10602 10606 10610 10612 10615 10618 10620 10622 10624 10626 10628 10630 10632 10633 10633
10416 10414 10412 10409 10407 10405 10402 10401 10402 10403 10402 10400 10397 10395 10393 10389 10386 10386 10386 10383 10379 10377 10375 10373 10371 10371 10370 10369 10368 10368 10368 10368 10368 10369 10370 10371 10373 10375 10377 10376 10375 10378 10385 10394 10403 10409 10416 10423 10431 10440 10449 10457 10465 10473 10482 10490 10498 10506 10513 10520 10527 10537 10548 10557 10561 10565 10571 10575 10580 10586 10593 10598 10603 10606 10608 10610 10612 10614 10617 10619 10622 10624 10626 10627 10628 10629
10415 10414 10412 10409 10408 10406 10404 10403 10403 10403 10403 10402 10400 10397 10395 10393 10393 10392 10388 10384 10382 10383 10381 10378 10376 10375 10374 10374 10373 10372 10372 10372 10372 10373 10374 10375 10376 10378 10380 10381 10380 10379 10381 10387 10395 10404 10412 10419 10427 10435 10443 10450 10457 10466 10476 10485 10494 10502 10509 10517 10525 10535 10544 10550 10554 10559 10565 10570 10575 10582 10589 10595 10598 10599 10600 10602 10604 10607 10611 10614 10618 10620 10622 10623 10624 10625
10414 10413 10412 10410 10408 10406 10405 10404 10403 10403 10403 10404 10402 10399 10397 10397 10397 10394 10389 10387 10387 10386 10384 10382 10381 10381 10380 10379 10377 10376 10374 10374 10375 10377 10378 10379 10380 10382 10383 10385 10386 10385 10384 10385 10390 10398 10407 10415 10423 10431 10439 10445 10452 10461 10471 10480 10490 10499 10505 10513 10523 10531 10538 10544 10549 10554 10559 10565 10571 10578 10584 10590 10593 10593 10594 10596 10598 10602 10607 10610 10613 10616 10617 10618 10620 10622
10413 10413 10411 10410 10408 10407 10405 10405 10403 10403 10405 10405 10403 10400 10399 10399 10397 10394 10392 10391 10390 10388 10387 10387 10386 10386 10385 10384 10382 10380 10378 10378 10379 10380 10382 10383 10384 10385 10387 10389 10390 10392 10392 10392 10394 10397 10404 10412 10420 10428 10435 10442 10450 10459 10468 10477 10487 10494 10502 10510 10519 10525 10531 10538 10543 10548 10554 10560 10567 10573 10580 10584 10587 10589 10590 10592 10595 10599 10602 10605 10608 10611 10613 10615 10617 10618
10411 10412 10411 10410 10408 10407 10406 10405 10404 10404 10406 10405 10403 10402 10401 10399 10397 10396 10395 10394 10393 10391 10391 10391 10390 10390 10390 10388 10387 10385 10383 10383 10384 10385 10386 10387 10388 10389 10390 10392 10394 10396 10398 10399 10400 10401 10405 10411 10419 10426 10433 10442 10450 10458 10467 10476 10484 10491 10500 10508 10514 10518 10525 10532 10537 10543 10550 10556 10562 10569 10575 10579 10582 10585 10586 10589 10593 10596 10598 10601 10604 10607 10609 10611 10613 10615
10409 10410 10411 10410 10409 10407 10406 10405 10404 10405 10406 10405 10402 10401 10401 10399 10398 10397 10397 10397 10396 10395 10394 10394 10394 10394 10394 10392 10391 10390 10388 10387 10388 10390 10390 10391 10391 10393 10394 10395 10397 10399 10401 10403 10404 10406 10409 10413 10419 10427 10434 10442 10449 10457 10465 10473 10481 10489 10497 10503 10508 10514 10520 10527 10533 10539 10546 10552 10558 10565 10571 10575 10578 10581 10583 10586 10590 10592 10594 10596 10599 10603 10605 10606 10608 10611
10406 10408 10409 10409 10408 10407 10406 10405 10404 10404 10405 10404 10402 10401 10401 10400 10398 10398 10399 10399 10399 10398 10397 10396 10397 10397 10398 10397 10396 10394 10393 10392 10393 10394 10395 10395 10395 10396 10397 10399 10400 10402 10404 10405 10407 10410 10412 10416 10421 10427 10434 10441 10447 10454 10463 10470 10478 10486 10492 10497 10503 10510 10516 10522 10528 10535 10542 10548 10555 10562 10567 10571 10574 10577 10579 10583 10586 10588 10590 10592 10595 10599 10601 10602 10605 10607
10405 10405 10406 10407 10407 10407 10406 10405 10404 10404 10405 10404 10402 10401 10402 10401 10399 10399 10400 10400 10401 10401 10400 10399 10399 10399 10400 10400 10400 10399 10398 10397 10397 10398 10399 10400 10400 10400 10400 10401 10402 10404 10406 10408 10411 10413 10415 10419 10422 10427 10432 10438 10445 10451 10459 10466 10474 10480 10485 10491 10498 10505 10511 10517 10524 10530 10536 10544 10553 10559 10562 10565 10569 10571 10574 10578 10582 10584 10586 10588 10592 10595 10597 10598 10600 10602
10402 10403 10403 10404 10405 10405 10405 10405 10404 10403 10404 10403 10402 10401 10402 10402 10400 10400 10400 10401 10402 10402 10402 10401 10401 10401 10401 10402 10403 10403 10402 10401 10400 10401 10403 10404 10404 10405 10405 10405 10406 10406 10407 10409 10412 10415 10417 10421 10424 10428 10431 10437 10443 10449 10455 10462 10468 10474 10480 10487 10493 10499 10505 10512 10519 10525 10533 10542 10549 10552 10553 10558 10564 10568 10571 10575 10578 10580 10583 10586 10588 10591 10593 10593 10595 10597
10400 10400 10401 10402 10403 10403 10403 10404 10404 10403 10403 10402 10402 10401 10402 10403 10401 10400 10400 10401 10402 10403 10404 10404 10403 10403 10403 10404 10404 10405 10405 10404 10404 10405 10406 10407 10408 10408 10409 10409 10410 10410 10410 10411 10414 10417 10419 10422 10426 10429 10433 10438 10443 10448 10453 10458 10463 10470 10476 10483 10489 10496 10503 10509 10514 10521 10530 10539 10545 10547 10551 10558 10566 10568 10569 10572 10574 10576 10579 10582 10583 10585 10587 10588 10590 10593
10399 10398 10398 10399 10400 10400 10401 10402 10403 10403 10402 10402 10401 10400 10401 10402 10401 10400 10401 10401 10402 10403 10404 10404 10404 10404 10404 10404 10404 10405 10406 10406 10406 10407 10407 10407 10409 10411 10412 10412 10412 10412 10413 10415 10418 10420 10423 10425 10428 10431 10435 10439 10444 10448 10452 10456 10461 10466 10472 10479 10486 10493 10500 10505 10510 10516 10523 10529 10536 10541 10547 10555 10562 10565 10567 10568 10570 10572 10574 10576 10579 10581 10582 10584 10585 10587
10397 10396 10396 10396 10396 10397 10398 10400 10401 10401 10401 10401 10400 10399 10400 10400 10400 10400 10401 10401 10401 10402 10403 10404 10404 10404 10404 10404 10404 10406 10406 10406 10406 10408 10408 10408 10409 10411 10413 10413 10413 10414 10415 10416 10419 10423 10426 10428 10430 10433 10435 10440 10447 10451 10452 10455 10460 10465 10472 10478 10484 10490 10494 10499 10505 10511 10516 10521 10525 10528 10531 10538 10548 10557 10564 10565 10564 10565 10568 10571 10573 10575 10576 10577 10579 10580